Regional Weather Roundup
Issued by NWS

Home | Current Version | Previous Version | Graphics & Text | Print | Product List | Glossary On
Versions: 1 2 3 4 5 6 7 8 9 10 11 12 13 14 15 16 17 18 19 20 21 22 23 24 25 26 27 28 29 30 31 32 33 34 35 36 37 38 39 40 41 42 43 44 45 46 47 48 49 50
163
ASUS43 KLMK 271810
RWRKY
KENTUCKY REGIONAL WEATHER ROUNDUP
NATIONAL WEATHER SERVICE LOUISVILLE KY
200 PM EDT FRI MAY 27 2016

NOTE "FAIR" INDICATES FEW OR NO CLOUDS BELOW 12,000 FEET
WITH NO SIGNIFICANT WEATHER AND/OR OBSTRUCTIONS TO VISIBILITY.

KYZ001>023-026-027-061>063-070>075-271900-
WESTERN AND SOUTH CENTRAL KENTUCKY

CITY           SKY/WX    TMP DP  RH WIND       PRES   REMARKS
PADUCAH        PTSUNNY   81  68  64 S14G21    29.92F
HENDERSON      PTSUNNY   82  68  61 S17G23    29.94F
OWENSBORO      MOSUNNY   85  67  54 S14G23    29.97F
HOPKINSVILLE   CLOUDY    82  67  59 S15       29.98F
BOWLING GREEN  MOSUNNY   83  65  54 S14       30.01F
GLASGOW        MOSUNNY   83  64  53 S10G16    30.03F
$$

KYZ024-025-028>034-038-045-046-053-271900-
NORTH CENTRAL KENTUCKY

CITY           SKY/WX    TMP DP  RH WIND       PRES   REMARKS
LOUISVILLE/SDF PTSUNNY   85  63  47 S13       30.00F
LOUISVILLE/LOU MOSUNNY   84  64  50 S9G18     30.01F
FORT KNOX      CLOUDY    83  65  54 S15       30.00F
$$

KYZ035>037-039>044-047>052-055>060-089>105-271900-
NORTHEAST KENTUCKY

CITY           SKY/WX    TMP DP  RH WIND       PRES   REMARKS
LEXINGTON      MOSUNNY   84  63  49 S9        30.06F
COVINGTON      MOSUNNY   84  65  52 SW12      30.03F
FRANKFORT      SUNNY     85  63  47 S9G20     30.03F
$$

KYZ054-064>069-076>088-106>120-271900-
SOUTHEAST KENTUCKY

CITY           SKY/WX    TMP DP  RH WIND       PRES   REMARKS
JACKSON        PTSUNNY   84  65  52 CALM      30.10F
LONDON         SUNNY     83  59  44 SW9       30.09F
SOMERSET       PTSUNNY   81  64  57 CALM      30.08F
MIDDLESBORO    MOSUNNY   85  65  52 S7        30.10F
MONTICELLO     MOCLDY    84  67  56 W13       30.08F
$$





USA.gov is the U.S. government's official web portal to all federal, state and local government web resources and services.